www.pogodaiklimat.ru

Погода и климат >> Архив погоды >> Бразилия >> Calcanhar


ПОГОДА в Calcanhar

  • Прогноз погоды в Calcanhar
  • Монитор погоды в Calcanhar
  • Климат города

АРХИВ ПОГОДЫ в Calcanhar

Время (UTC), дата Ветер
(напр.,м/с)
 
Видим.   Явления Облачность Т
(С)
Тd
(С)
f
(%)
Тe
(С)
Тes
(С)
Комфортность P
(гПа)
Po
(гПа)
Тmin
(С)
Tmax
(С)
R
(мм)
R24
(мм)
S
(см)
01 13.07 С 2
{5}
н/о н/о +23.7 +20 +20 1016.8 1015.7
02 13.07 С 4
{7}
н/о н/о +23.4 +19 +19 1017.1 1015.9
03 13.07 С 2
{7}
н/о н/о +23.1 +19 +19 1016.7 1015.5
04 13.07 С 3
{4}
н/о н/о +23.3 +19 +19 1015.7 1014.6
05 13.07 С 3
{4}
н/о н/о +22.9 +19 +19 1015.5 1014.3
06 13.07 С 3
{4}
н/о н/о +23.1 +19 +19 1015.0 1013.9
07 13.07 С 2
{4}
н/о н/о +22.4 +19 +19 1015.1 1013.9
08 13.07 С 3
{3}
н/о н/о +22.2 +19 +19 1015.5 1014.3
09 13.07 С 3
{4}
н/о н/о +22.3 +19 +19 1015.8 1014.6
10 13.07 С 3
{4}
н/о н/о +22.5 +19 +19 1016.5 1015.3
11 13.07 С 4
{6}
н/о н/о +22.7 +19 +19 1017.1 1015.9
12 13.07 С 4
{6}
н/о н/о +24.1 +20 +20 1017.4 1016.3
13 13.07 С 4
{7}
н/о н/о +25.1 +21 +21 комфорт 1017.3 1016.2
14 13.07 С 4
{6}
н/о н/о +27.4 +23 +23 комфорт 1016.6 1015.5
15 13.07 С 5
{8}
н/о н/о +27.7 +4.7 23 +26 +26 жарко 1015.6 1014.5
16 13.07 С 6
{8}
н/о н/о +28.3 +4.5 22 +27 +27 жарко 1014.8 1013.7
17 13.07 С 5
{8}
н/о н/о +27.9 +5.2 24 +27 +27 жарко 1014.2 1013.1
18 13.07 С 5
{8}
н/о н/о +27.6 +5.5 24 +27 +27 жарко 1013.8 1012.7
19 13.07 С 5
{8}
н/о н/о +26.7 +2.2 20 +25 +25 комфорт 1013.6 1012.5
20 13.07 С 4
{8}
н/о н/о +26.1 +6.4 28 +26 +26 жарко 1014.0 1012.9
21 13.07 С 4
{6}
н/о н/о +25.5 +3.2 24 +25 +25 комфорт 1014.4 1013.3
22 13.07 С 3
{6}
н/о н/о +25.2 +8.9 36 +26 +26 жарко 1014.9 1013.8
23 13.07 С 3
{5}
н/о н/о +24.8 +12.9 48 +27 +27 жарко 1015.6 1014.5
00 14.07 С 3
{5}
н/о н/о +24.4 +13.6 51 +27 +27 жарко 1016.0 1014.9
01 14.07 С 2
{4}
н/о н/о +23.5 +22.4 94 +31 +31 очень
душно
1016.4 1015.3
02 14.07 С 2
{3}
н/о н/о +22.0 +19 +19 1016.8 1015.6
03 14.07 С 2
{3}
н/о н/о +21.5 +19 +19 1016.8 1015.6
04 14.07 С 2
{4}
н/о н/о +21.1 +19 +19 1016.1 1014.9
05 14.07 С 3
{4}
н/о н/о +21.3 +19 +19 1015.2 1014.0
06 14.07 С 3
{5}
н/о н/о +21.0 +20 +20 1015.0 1013.8
07 14.07 С 3
{4}
н/о н/о +20.8 +20 +20 1015.1 1013.9
08 14.07 С 3
{4}
н/о н/о +20.6 +20 +20 1015.4 1014.2
09 14.07 С 3
{5}
н/о н/о +20.6 +19 +19 1015.5 1014.3
10 14.07 С 3
{5}
н/о н/о +22.5 +19 +19 1015.9 1014.7
11 14.07 С 4
{5}
н/о н/о +24.9 +21 +21 комфорт 1016.6 1015.5
12 14.07 С 4
{6}
н/о н/о +27.0 +20.5 68 +34 +34 очень
душно
1016.7 1015.6
13 14.07 С 4
{6}
н/о н/о +28.2 +5.3 23 +27 +27 жарко 1016.5 1015.4
14 14.07 С 5
{6}
н/о н/о +28.9 +5.7 23 +28 +28 жарко 1015.8 1014.7
15 14.07 С 5
{7}
н/о н/о +28.6 +8.7 29 +28 +28 жарко 1015.2 1014.1
16 14.07 С 5
{7}
н/о н/о +28.4 +9.6 31 +28 +28 жарко 1014.4 1013.3
17 14.07 С 5
{7}
н/о н/о +27.9 +8.7 30 +28 +28 жарко 1014.0 1012.9
18 14.07 С 5
{7}
н/о н/о +27.6 +9.2 31 +28 +28 жарко 1013.5 1012.4
19 14.07 С 4
{7}
н/о н/о +26.7 +4.4 24 +26 +26 жарко 1013.7 1012.6
20 14.07 С 4
{6}
н/о н/о +26.2 +7.3 30 +26 +26 жарко 1014.0 1012.9
21 14.07 С 3
{6}
н/о н/о +25.6 +18.2 64 +30 +30 душно 1014.2 1013.1
22 14.07 С 3
{4}
н/о н/о +25.4 +22.9 86 +34 +34 очень
душно
1014.6 1013.5
23 14.07 С 3
{5}
н/о н/о +25.5 +19.1 68 +31 +31 очень
душно
1015.1 1014.0
00 15.07 С 2
{4}
н/о н/о +24.5 +22.7 90 +32 +32 очень
душно
1015.6 1014.5
01 15.07 С 2
{3}
н/о н/о +23.7 +20 +20 1015.8 1014.7
02 15.07 С 2
{3}
н/о н/о +23.4 +19 +19 1016.0 1014.9
03 15.07 С 3
{3}
н/о н/о +22.8 +19 +19 1015.6 1014.4
04 15.07 С 3
{4}
н/о н/о +22.3 +19 +19 1015.0 1013.8
05 15.07 С 2
{4}
н/о н/о +22.1 +19 +19 1014.8 1013.6
06 15.07 С 3
{4}
н/о н/о +21.7 +19 +19 1014.5 1013.3
07 15.07 С 3
{4}
н/о н/о +21.6 +19 +19 1014.3 1013.1
08 15.07 С 3
{5}
н/о н/о +21.6 +19 +19 1014.6 1013.4
09 15.07 С 3
{5}
н/о н/о +21.7 +19 +19 1015.1 1013.9
10 15.07 С 4
{6}
н/о н/о +23.3 +19 +19 1015.3 1014.2
11 15.07 С 4
{6}
н/о н/о +25.7 +21 +21 комфорт 1015.9 1014.8
12 15.07 С 4
{7}
н/о н/о +27.4 -0.3 16 +25 +25 комфорт 1016.5 1015.4
13 15.07 С 4
{7}
н/о н/о +27.7 -7.0 10 +24 +24 комфорт 1016.2 1015.1
14 15.07 С 5
{7}
н/о н/о +28.1 -8.6 8 +24 +24 комфорт 1015.6 1014.5
15 15.07 С 5
{7}
н/о н/о +29.0 -9.2 8 +25 +25 комфорт 1014.9 1013.8
16 15.07 С 5
{8}
н/о н/о +28.1 -8.0 9 +25 +25 комфорт 1014.3 1013.2
17 15.07 С 5
{8}
н/о н/о +29.0 -17.0 4 +25 +25 комфорт 1013.7 1012.6
18 15.07 С 5
{7}
н/о н/о +27.6 +0.4 17 +24 +24 комфорт 1013.5 1012.4
19 15.07 С 5
{7}
н/о н/о +27.5 -6.3 10 +24 +24 комфорт 1013.6 1012.5
20 15.07 С 4
{7}
н/о н/о +26.3 -2.6 15 +24 +24 комфорт 1014.1 1013.0
21 15.07 С 4
{6}
н/о н/о +25.7 +15.2 52 +29 +29 душно 1014.3 1013.2
22 15.07 С 3
{6}
н/о н/о +25.6 +18.1 63 +30 +30 душно 1014.9 1013.8
23 15.07 С 3
{6}
н/о н/о +25.0 +16.5 59 +28 +28 жарко 1015.4 1014.3
00 16.07 С 3
{5}
н/о н/о +24.6 +21.7 84 +31 +31 очень
душно
1016.1 1015.0
01 16.07 С 3
{4}
н/о н/о +24.9 +22.5 87 +33 +33 очень
душно
1016.2 1015.1
02 16.07 С 4
{5}
н/о н/о +25.2 +17.1 61 +29 +29 душно 1016.3 1015.2
03 16.07 С 4
{5}
н/о н/о +24.8 +22.5 87 +32 +32 очень
душно
1016.1 1015.0
04 16.07 С 3
{5}
н/о н/о +25.0 +21 +21 комфорт 1015.6 1014.5
05 16.07 С 3
{6}
н/о н/о +24.8 +24.3 97 +34 +34 очень
душно
1015.4 1014.3
06 16.07 С 4
{6}
н/о н/о +23.7 +21.1 85 +30 +30 очень
душно
1015.6 1014.5
07 16.07 С 4
{7}
н/о н/о +22.7 +19 +19 1015.6 1014.4
08 16.07 С 3
{6}
н/о н/о +22.6 +19 +19 1015.5 1014.3
09 16.07 С 2
{3}
н/о н/о +22.4 +11.4 50 +19 +19 1016.0 1014.8
10 16.07 С 3
{5}
н/о н/о +23.6 +20 +20 1016.2 1015.1
11 16.07 С 4
{6}
н/о н/о +25.7 +21 +21 комфорт 1016.8 1015.7
12 16.07 С 5
{7}
н/о н/о +27.0 -3.3 13 +24 +24 комфорт 1017.0 1015.9
13 16.07 С 5
{8}
н/о н/о +28.5 -13.0 6 +25 +25 комфорт 1016.6 1015.5
14 16.07 С 6
{8}
н/о н/о +28.4 -17.7 4 +24 +24 комфорт 1016.6 1015.5
15 16.07 С 5
{8}
н/о н/о +28.5 -19.4 3 +24 +24 комфорт 1016.1 1015.0
16 16.07 С 6
{8}
н/о н/о +28.4 -13.9 5 +24 +24 комфорт 1015.4 1014.3
17 16.07 С 6
{8}
н/о н/о +28.1 -14.3 5 +24 +24 комфорт 1014.6 1013.5
18 16.07 С 6
{8}
н/о н/о +27.7 -22.3 3 +24 +24 комфорт 1014.3 1013.2
19 16.07 С 5
{8}
н/о н/о +27.1 -21.3 3 +23 +23 комфорт 1014.6 1013.5
20 16.07 С 5
{8}
н/о н/о +26.3 -20.4 4 +22 +22 комфорт 1015.0 1013.9
21 16.07 С 4
{7}
н/о н/о +25.7 -19.5 4 +22 +22 комфорт 1015.5 1014.4
22 16.07 С 4
{6}
н/о н/о +25.6 -19.1 4 +22 +22 комфорт 1016.0 1014.9
23 16.07 С 4
{6}
н/о н/о +25.5 -16.4 5 +22 +22 комфорт 1016.3 1015.2
00 17.07 С 3
{5}
н/о н/о +25.3 -18.7 4 +22 +22 комфорт 1016.7 1015.6
01 17.07 С 3
{5}
н/о н/о +25.1 -17.4 5 +22 +22 комфорт 1017.0 1015.9
02 17.07 С 2
{4}
н/о н/о +23.1 -14.2 7 +20 +20 1017.4 1016.2
03 17.07 С 2
{3}
н/о н/о +21.7 -6.1 15 +20 +20 1016.9 1015.7
04 17.07 С 3
{4}
н/о н/о +21.4 +14.6 65 +24 +24 комфорт 1016.7 1015.5
05 17.07 С 2
{4}
н/о н/о +21.0 +20 +20 1016.2 1015.0
06 17.07 С 3
{3}
н/о н/о +20.6 +20 +20 1016.2 1015.0
07 17.07 С 3
{4}
н/о н/о +20.4 +19 +19 1016.1 1014.9
08 17.07 С 3
{4}
н/о н/о +20.8 +20 +20 1016.3 1015.1
09 17.07 С 3
{4}
н/о н/о +20.8 +20 +20 1016.6 1015.4
10 17.07 С 3
{4}
н/о н/о +22.4 +19 +19 1016.8 1015.6
11 17.07 С 4
{5}
н/о н/о +25.1 +13.5 49 +27 +27 жарко 1016.8 1015.7
12 17.07 С 3
{6}
н/о н/о +25.9 -6.1 12 +23 +23 комфорт 1017.1 1016.0
13 17.07 С 4
{7}
н/о н/о +25.7 +9.2 35 +26 +26 жарко 1017.2 1016.1
14 17.07 С 4
{6}
н/о н/о +26.7 -7.4 10 +24 +24 комфорт 1016.6 1015.5
15 17.07 С 5
{8}
н/о н/о +24.6 +21 +21 комфорт 1016.1 1015.0
16 17.07 С 4
{7}
н/о н/о +25.8 +21 +21 комфорт 1015.5 1014.4
17 17.07 С 5
{7}
н/о н/о +27.5 -5.3 11 +24 +24 комфорт 1014.8 1013.7
18 17.07 С 5
{7}
н/о н/о +27.5 -9.6 8 +24 +24 комфорт 1014.2 1013.1
19 17.07 С 5
{8}
н/о н/о +27.0 -11.9 7 +23 +23 комфорт 1014.4 1013.3
20 17.07 С 5
{7}
н/о н/о +26.4 -14.5 6 +23 +23 комфорт 1014.7 1013.6
21 17.07 С 3
{7}
н/о н/о +25.8 -6.3 11 +23 +23 комфорт 1015.0 1013.9
22 17.07 С 3
{5}
н/о н/о +25.2 +15.9 56 +28 +28 жарко 1015.3 1014.2
23 17.07 С 3
{5}
н/о н/о +24.2 +18.2 69 +29 +29 душно 1015.8 1014.7
00 18.07 С 2
{3}
н/о н/о +23.3 +19 +19 1016.2 1015.1
01 18.07 С 3
{4}
н/о н/о +23.3 +19 +19 1016.7 1015.5
09 18.07 С 3
{5}
н/о н/о +22.8 +19 +19 1015.0 1013.8
10 18.07 С 4
{6}
н/о н/о +23.9 +20 +20 1015.2 1014.1
11 18.07 С 4
{7}
н/о н/о +24.8 +21 +21 комфорт 1015.7 1014.6
12 18.07 С 5
{7}
н/о н/о +25.3 +21 +21 комфорт 1015.8 1014.7
14 18.07 С 4
{7}
н/о н/о +25.7 +21 +21 комфорт 1015.4 1014.3
13 18.07 С 4
{7}
н/о н/о +25.7 +21 +21 комфорт 1015.8 1014.7
15 18.07 С 5
{7}
н/о н/о +24.7 +21 +21 комфорт 1015.0 1013.9
16 18.07 С 3
{7}
н/о н/о +25.6 +21 +21 комфорт 1014.3 1013.2
17 18.07 С 4
{7}
н/о н/о +24.6 +21 +21 комфорт 1013.7 1012.6
18 18.07 С 5
{8}
н/о н/о +26.1 +22 +22 комфорт 1013.3 1012.2
20 18.07 С 4
{8}
н/о н/о +25.5 +23.8 90 +35 +35 очень
душно
1013.7 1012.6
19 18.07 С 6
{8}
н/о н/о +25.3 +21 +21 комфорт 1013.4 1012.3
21 18.07 С 6
{9}
н/о н/о +24.4 +20 +20 1013.9 1012.8
22 18.07 С 5
{9}
н/о н/о +25.5 +12.6 45 +27 +27 жарко 1014.2 1013.1
23 18.07 С 4
{7}
н/о н/о +25.4 +6.9 31 +25 +25 комфорт 1014.7 1013.6
00 19.07 С 3
{6}
н/о н/о +25.0 -3.4 15 +23 +23 комфорт 1015.2 1014.1
02 19.07 С 4
{6}
н/о н/о +24.1 -22.7 3 +21 +21 комфорт 1015.4 1014.3
01 19.07 С 4
{6}
н/о н/о +24.3 -19.4 4 +21 +21 комфорт 1015.3 1014.2
03 19.07 С 3
{5}
н/о н/о +22.6 -13.6 8 +20 +20 1015.1 1013.9
04 19.07 С 4
{6}
н/о н/о +22.3 -9.0 12 +20 +20 1014.6 1013.4
05 19.07 С 3
{6}
н/о н/о +21.4 +9.3 46 +23 +23 комфорт 1014.2 1013.0
06 19.07 С 3
{5}
н/о н/о +21.0 +20.3 96 +27 +27 душно 1014.0 1012.8
07 19.07 С 3
{4}
н/о н/о +20.7 +19 +19 1014.2 1013.0
09 19.07 С 3
{4}
н/о н/о +19.8 +14.9 73 +19 +19 1014.4 1013.2
10 19.07 С 3
{5}
н/о н/о +21.8 +19 +19 1014.8 1013.6
11 19.07 С 3
{6}
н/о н/о +24.7 +7.4 33 +25 +25 комфорт 1015.1 1014.0
12 19.07 С 4
{6}
н/о н/о +26.0 -6.5 11 +23 +23 комфорт 1015.3 1014.2
13 19.07 С 4
{7}
н/о н/о +27.4 -19.3 4 +23 +23 комфорт 1014.8 1013.7
14 19.07 С 5
{8}
н/о н/о +28.4 -19.3 3 +24 +24 комфорт 1014.1 1013.0
15 19.07 С 5
{8}
н/о н/о +28.9 -20.6 3 +24 +24 комфорт 1013.3 1012.2
16 19.07 С 5
{8}
н/о н/о +30.1 -19.8 3 +25 +25 комфорт 1012.5 1011.4
17 19.07 С 6
{8}
н/о н/о +27.8 -21.3 3 +23 +23 комфорт 1012.0 1010.9
18 19.07 С 5
{8}
н/о н/о +27.9 -21.3 3 +24 +24 комфорт 1011.9 1010.8
19 19.07 С 5
{7}
н/о н/о +27.2 -21.8 3 +23 +23 комфорт 1012.0 1010.9
20 19.07 С 4
{7}
н/о н/о +26.4 -22.3 3 +22 +22 комфорт 1012.6 1011.5
21 19.07 С 3
{7}
н/о н/о +25.2 -23.0 3 +21 +21 комфорт 1013.1 1012.0
22 19.07 С 3
{5}
н/о н/о +24.5 -17.4 5 +21 +21 комфорт 1013.4 1012.3
23 19.07 С 3
{5}
н/о н/о +24.0 -12.4 8 +21 +21 комфорт 1014.1 1013.0

 

Местоположение метеостанции Calcanhar (Бразилия): широта -5.17 долгота -35.48 высота над уровнем моря 19 м.

В архиве по умолчанию представлена погода в Calcanhar за последнюю неделю. Архивные данные за месяц целиком и за предыдущие месяцы, начиная с января 2011 года, Вы можете получить, выбрав интересующий диапазон дат из раскрывающегося списка и нажав кнопку "Ввод!".


*Определитесь, кто Вы:
робот инопланетянин человек

Внимание! Время в таблицах - всемирное. Для получения местного времени необходимо прибавить поправку, которая в Calcanhar равна -3 ч.

Смотрите также архив погоды в соседних городах и на ближайших метеорологических станциях:

Погода в Natal (Бразилия) (80 км)
Погода в Natal (Бразилия) (87 км)
Погода в Macau (Бразилия) (128 км)
Погода в Santa Cruz (Бразилия) (133 км)
Погода в Macau (Бразилия) (137 км)
Погода в Camaratuba (Бразилия) (166 км)
Погода в Areia (Бразилия) (201 км)
Погода в Mossoro (Бразилия) (210 км)
Погода в Caico (Бразилия) (229 км)
Погода в Joao Pessoa (Бразилия) (231 км)

Пояснения к столбцам:

Ветер - указаны скорость ветра в м/с - средняя за 10 мин, порывы в срок и между сроками (в фигурных скобках) и направление, откуда дует ветер: С - северный, СВ - северо-восточный, В - восточный, ЮВ - юго-восточный, Ю - южный, ЮЗ - юго-западный, З - западный, СЗ - северо-западный.
Видимость - горизонтальная дальность видимости в метрах или километрах. При видимости от 1 до 10 км при отсутствии осадков обычно наблюдается дымка, при ухудшении видимости до 1 км и менее - туман. В сухую погоду видимость может ухудшаться дымом, пылью или мглою.
Явления - указаны атмосферные явления, наблюдавшиеся в срок или в последний час перед сроком; фигурными скобками обозначены явления, наблюдавшиеся между сроками (за 1-3 часа до срока); квадратными скобками обозначены град или гололедные отложения с указанием их диаметра в мм.
Облачность - указаны через наклонную черту общая и нижняя облачность в баллах и высота нижней границы облаков в метрах; квадратными скобками обозначены формы облаков: Ci - перистые, Cs - перисто-слоистые, Cc - перисто-кучевые, Ac - высококучевые, As - высокослоистые, Sc - слоисто-кучевые, Ns - слоисто-дождевые, Cu - кучевые, Cb - кучево-дождевые. Подробнее классификацию облаков см. в Атласе облаков (PDF).
T - Температура воздуха - температура, измеренная на высоте 2 м над землей.
Td - Температура точки росы - температура, при понижении до которой содержащийся в воздухе водяной пар достигнет насыщения.
f - Относительная влажность воздуха - влажноcть воздуха, измеренная на высоте 2 м над землей.
Te - Эффективная температура - температура, которую ощущает одетый по сезону человек в тени. Характеристика душности погоды. При расчете учитывается влияние влажности воздуха и скорости ветра на теплоощущения человека.
Tes - Эффективная температура на солнце - температура, которую ощущает человек, с поправкой на солнечный нагрев. Характеристика знойности погоды. Зависит от высоты солнца над горизонтом, облачности и скорости ветра. Ночью, в пасмурную погоду, а также при ветре 12 м/с и более поправка равна нулю.
P - Атмосферное давление - приведенное к уровню моря атмосферное давление.
Po - Атмосферное давление - измеренное на уровне метеостанции атмосферное давление.
Tmin - Минимальная температура - минимум температуры воздуха на высоте 2 м над землей.
Tmax - Максимальная температура - максимум температуры воздуха на высоте 2 м над землей.
R - Количество осадков - Количество выпавших осадков за период времени, мм. При наведении курсора мыши на число - период времени, за который выпало указанное количество осадков.
R24 - Количество осадков - Количество выпавших осадков за 24 часа, мм.
S - Снежный покров - Высота снежного покрова, см. При наведении курсора мыши на число - состояние снежного покрова и степень покрытия местности в баллах.